Flag for Germany Weather past 2 weeks in Bühl, Baden-Württemberg, Germany

Now
66 °F

Light rain. Partly cloudy.


Feels Like: 66 °F
Forecast: 64 / 88 °F
Wind: 2 mph from South

Location: Karlsruhe - Baden Wurttemberg

Current Time: Aug 28, 2015 at 8:07:12 AM

Latest Report: Aug 28, 2015 at 7:20 AM


Visibility: N/A

Pressure: 29.98 "Hg

Humidity: 94%

Dew point: 64 °F

Location of BühlLocation

Historic Weather in Bühl — Graph

°F

Bühl temperature yesterday

Maximum temperature yesterday: 91 °F (at 3:50 PM)
Minimum temperature yesterday: 59 °F (at 3:20 AM)
Average temperature yesterday: 77 °F

Past Weeks' High & Low Weather Summary

 TemperatureHumidityPressure
High93 °F (Aug 13, 3:50 PM)94% (Aug 14, 4:50 AM)30.24 "Hg (Aug 14, 4:50 AM)
Low48 °F (Aug 18, 5:50 AM)21% (Aug 27, 3:20 PM)29.68 "Hg (Aug 24, 7:20 AM)
Average67 °F63%29.96 "Hg
* Reported Aug 13 6:20 AM — Aug 28 6:50 AM, Bühl, Weather by CustomWeather, © 2015

Note: Actual official high and low records may vary slightly from our data, if they occured in-between our weather recording intervals... More about our weather records

Advertising

Bühl weather history for previous 24 hours

 ConditionsComfort  
Time TempWeatherWind HumidityBarometerVisibility
6:50 AM
Fri, Aug 28
66 °FScattered showers. Partly cloudy.3 mph94%29.98 "HgN/A
6:20 AM66 °FPassing clouds.2 mph94%29.98 "HgN/A
5:50 AM66 °FLight rain. Passing clouds.5 mph94%29.95 "Hg5 mi
4:50 AM66 °FRain. Passing clouds.1 mph88%29.98 "Hg4 mi
10:50 PM
Thu, Aug 27
77 °FClear.2 mph51%29.83 "Hg10 mi
10:20 PM79 °FClear.3 mph45%29.83 "Hg10 mi
9:50 PM81 °FPassing clouds.5 mph42%29.80 "HgN/A
9:20 PM81 °FClear.6 mph42%29.80 "Hg10 mi
8:50 PM81 °FSunny.5 mph42%29.80 "Hg10 mi
8:20 PM81 °FSunny.5 mph39%29.80 "Hg10 mi
7:50 PM84 °FSunny.6 mph35%29.80 "Hg10 mi
7:20 PM84 °FSunny.8 mph31%29.80 "Hg10 mi
6:50 PM86 °FSunny.7 mph29%29.80 "Hg10 mi
6:20 PM88 °FSunny.13 mph25%29.80 "Hg10 mi
5:50 PM90 °FSunny.18 mph24%29.80 "Hg10 mi
5:20 PM91 °FSunny.18 mph21%29.80 "Hg10 mi
4:50 PM91 °FSunny.16 mph21%29.80 "Hg10 mi
4:20 PM90 °FPassing clouds.16 mph24%29.80 "HgN/A
3:50 PM91 °FPassing clouds.16 mph21%29.83 "HgN/A
3:20 PM90 °FPassing clouds.18 mph21%29.83 "HgN/A
2:50 PM90 °FSunny.15 mph22%29.83 "HgN/A
2:20 PM88 °FPassing clouds.17 mph24%29.83 "HgN/A
1:50 PM86 °FPassing clouds.14 mph27%29.86 "HgN/A
1:20 PM84 °FPassing clouds.12 mph31%29.86 "HgN/A
12:50 PM82 °FPassing clouds.13 mph32%29.89 "HgN/A
12:20 PM82 °FPassing clouds.9 mph30%29.89 "HgN/A
11:20 AM81 °FSunny.8 mph34%29.92 "Hg10 mi
10:50 AM79 °FPassing clouds.8 mph37%29.92 "HgN/A
10:20 AM79 °FPassing clouds.8 mph39%29.92 "HgN/A
9:20 AM73 °FPassing clouds.5 mph50%29.92 "HgN/A
8:50 AM70 °FSunny.3 mph53%29.92 "Hg10 mi
8:20 AM66 °FSunny.3 mph60%29.92 "Hg10 mi
Weather by CustomWeather, © 2015

See weather overviewHow to use our weather pages